Regional Weather Roundup
Issued by NWS

Home | Current Version | Previous Version | Text Only | Print | Product List | Glossary On
Versions: 1 2 3 4 5 6 7 8 9 10 11 12 13 14 15 16 17 18 19 20 21 22 23 24 25 26 27 28 29 30 31 32 33 34 35 36 37 38 39 40 41 42 43 44 45 46 47 48 49 50
000
ASUS43 KLSX 252059
RWRMO

WEATHER SUMMARY FOR MISSOURI
NATIONAL WEATHER SERVICE SPRINGFIELD MO
400 PM CDT FRI JUL 25 2014

NOTE: "FAIR" INDICATES FEW OR NO CLOUDS BELOW 12,000 FEET WITH NO
       SIGNIFICANT WEATHER AND/OR OBSTRUCTIONS TO VISIBILITY.
       CURRENT SKY AND/OR WEATHER CONDITIONS ARE NOT AVAILABLE FOR
       CHILLICOTHE AND FARMINGTON.

MOZ001>031-035>038-043-044-053-054-252200-
...NORTHERN AND WESTERN MISSOURI...

CITY           SKY/WX    TMP DP  RH WIND       PRES   REMARKS
KANSAS CTY INT MOSUNNY   95  73  48 S21G28    29.78F HX 104
KANSAS C DTWN  SUNNY     98  71  41 S18G24    29.78F HX 106
LEE`S SUMMIT   SUNNY     94  73  50 S14G22    29.83F HX 103
ST JOSEPH      SUNNY     94  75  54 S12       29.75F HX 105
CHILLICOTHE      N/A     91  75  59 S14G24    29.79F HX 101
KIRKSVILLE     CLOUDY    74  66  76 SE15      29.87F

$$
MOZ066>068-077>081-088>096-101>105-252200-
...SOUTHWEST MISSOURI...

CITY           SKY/WX    TMP DP  RH WIND       PRES   REMARKS
SPRINGFIELD    SUNNY     92  68  45 S16       29.94F HX  96
JOPLIN         SUNNY     92  69  47 S18       29.91F HX  97

$$
MOZ032>034-039>042-045>050-055>058-069>072-252200-
...CENTRAL MISSOURI...

CITY           SKY/WX    TMP DP  RH WIND       PRES   REMARKS
COLUMBIA       MOSUNNY   85  68  56 S15G22    29.89F
JEFFERSON CITY MOSUNNY   87  68  52 SE12      29.88F HX  90
ROLLA          MOSUNNY   89  65  44 SE15G22   29.94F HX  91
SEDALIA        SUNNY     95  71  45 S15G23    29.87F HX 102
OSAGE BEACH    SUNNY     93  68  43 S10       29.91F HX  97

$$
MOZ051-052-059>065-252200-
...EAST CENTRAL MISSOURI...

CITY           SKY/WX    TMP DP  RH WIND       PRES   REMARKS
ST LOUIS INTL  CLOUDY    75  62  64 S18G24    29.95F
SPIRIT OF STL  CLOUDY    75  63  66 S10G16    29.94F
ST CHARLES     CLOUDY    74  64  71 S17       29.92F

$$
MOZ072>076-082>087-097>100-106>115-252200-
...SOUTH CENTRAL AND SOUTHEAST MISSOURI...

CITY           SKY/WX    TMP DP  RH WIND       PRES   REMARKS
CAPE GIRARDEAU CLOUDY    81  63  54 NE8       30.05R
FARMINGTON     CLOUDY    79  61  53 SE8       30.05F
POPLAR BLUFF   PTSUNNY   83  60  45 CALM      30.03R
WEST PLAINS    MOSUNNY   84  65  52 S7        30.03R

$$


USA.gov is the U.S. government's official web portal to all federal, state and local government web resources and services.